Location: Les Iffs
(48.2880°N, 1.8673°W)
Time: 21:19:24
(UTC+00:00)

Daily predictions for brighter satellites

Satellite Brightness Start Highest point End
(mag) Time Altitude Azimuth Time Altitude Azimuth Time Altitude Azimuth
COSMO-SKYMED 1 3.5 17:53:12 10° NE 17:56:39 25° E 18:00:04 10° SSE
Okean 1 Rocket 3.5 17:52:59 10° N 17:57:07 38° ENE 18:01:12 10° SE
PSLV R/B 4.4 17:53:59 10° ESE 17:57:26 27° ENE 18:00:53 10° N
CZ-2D R/B 2.8 17:55:36 10° S 17:58:39 81° WSW 18:01:44 10° NNW
Cosmos 2221 Rocket 4.3 17:55:25 10° SSE 17:59:24 33° E 18:03:26 10° NNE
Okean 2 Rocket 3.3 17:55:15 10° N 17:59:30 47° ENE 18:03:43 10° SSE
USA 234 3.7 17:53:07 10° SE 17:59:38 70° SW 18:06:12 10° WNW
Meteor 1-11 4.3 17:54:41 10° S 18:00:12 63° E 18:05:52 10° NNE
ARIANE 5 R/B 2.8 17:55:40 10° S 18:00:48 77° WSW 18:05:52 10° NNW
BREEZE-M (TANK) 2.0 18:03:24 10° WNW 18:05:39 90° E 18:10:32 10° ESE
Cosmos 1378 Rocket 3.5 18:02:19 10° S 18:06:38 87° ESE 18:10:57 10° N
Radarsat Rocket 4.2 18:02:50 10° SE 18:08:30 53° ENE 18:14:37 10° N
CZ-2D R/B 3.6 18:06:48 10° SE 18:10:32 46° ENE 18:14:23 10° N
NOSS 3-3 (A) 3.7 18:05:32 10° SSW 18:10:36 67° SE 18:16:41 10° NE
BREEZE-M DEB (TANK) 4.3 18:08:01 10° WNW 18:11:41 40° SSW 18:15:48 10° SE
Cosmos 2123 Rocket 4.3 18:05:43 10° SSW 18:12:01 76° W 18:18:21 10° N
Sich 1 Rocket 3.8 18:08:15 10° N 18:12:43 53° ENE 18:17:10 10° SSE
Cosmos 2297 Rocket 2.7 18:11:28 10° S 18:16:41 40° ESE 18:21:56 10° NE
Tiangong 0.4 18:15:47 10° S 18:16:50 11° SSE 18:17:52 10° SE
Meteor 2-1 Rocket 4.3 18:11:24 10° N 18:17:13 71° ENE 18:23:05 10° SSE
GP-B 3.5 18:14:22 10° S 18:18:42 69° W 18:23:05 10° N
Cosmos 1025 Rocket 3.0 18:15:08 10° S 18:19:24 65° E 18:23:42 10° NNE
SKYMED 2 3.5 18:15:26 10° NNE 18:19:48 75° ESE 18:24:08 10° S
Cosmos 1356 Rocket 3.5 18:17:50 10° NNW 18:21:47 76° W 18:25:44 10° S
Resurs 01 Rocket 2.1 18:18:52 10° SE 18:22:53 36° ENE 18:26:56 10° N
Resurs 1-3 3.5 18:21:23 10° SSE 18:25:40 83° ENE 18:30:00 10° NNW
USA 290 3.8 18:26:10 10° SW 18:29:08 35° WNW 18:32:08 10° N
NOSS 3-4 (A) 3.9 18:22:59 10° NW 18:29:26 56° NE 18:37:02 10° ESE
NOSS 3-4 (C) 3.9 18:23:15 10° NW 18:29:43 56° NE 18:37:19 10° ESE
Cosmos 1782 4.1 18:29:35 10° NNE 18:31:37 17° ENE 18:31:37 17° ENE
Helios 1A Rocket 4.3 18:39:28 14° SE 18:39:28 14° SE 18:40:20 10° SE
SPOT 1/Viking Rocket 4.5 18:33:48 10° S 18:38:46 52° W 18:43:47 10° NNW
Lacrosse 5 rocket 2.5 18:39:26 10° W 18:42:31 28° NNW 18:44:56 14° NE
Cosmos 1674 Rocket 4.2 18:38:19 10° SSW 18:42:39 58° WNW 18:47:01 10° N
Cosmos 1447 Rocket 4.4 18:36:52 10° S 18:42:58 76° E 18:49:07 10° NNE
Cosmos 1980 3.6 18:39:32 10° NNW 18:45:15 82° ENE 18:50:54 10° SSE
ATLAS 2AS CENTAUR R/B 4.3 18:39:48 10° WNW 18:45:23 25° NNW 18:50:55 10° NE
COSMOS 2428 3.8 18:40:38 10° NW 18:46:07 49° WSW 18:51:35 10° S
Meteor 1-27 4.3 18:40:34 10° N 18:46:18 62° ENE 18:52:04 10° SSE
Cosmos 2263 Rocket 3.5 18:43:16 10° SE 18:46:41 19° ESE 18:46:41 19° ESE
SJ-6B 2.8 18:46:43 10° SE 18:49:57 41° ENE 18:53:13 10° N
Terra 3.9 18:51:38 11° NE 18:51:38 11° NE 18:52:17 10° NNE
Cosmos 2237 Rocket 2.1 18:44:56 10° NNW 18:50:39 84° ENE 18:56:21 10° SSE
Cosmos 1891 Rocket 4.5 18:46:00 10° N 18:52:25 76° E 18:58:53 10° SSE
CARTOSAT-1 3.5 18:50:18 10° SSE 18:54:30 85° WSW 18:58:45 10° NNW
Cosmos 2285 Rocket 4.2 18:48:43 10° NNW 18:55:10 79° WSW 19:01:33 10° SSE
Cosmos 44 Rocket 3.6 18:55:01 10° SSW 18:59:41 47° ESE 19:02:16 25° ENE
ERS-1 Rocket 4.5 19:04:25 19° NE 19:04:25 19° NE 19:07:00 10° NNE
USA 267 3.8 18:59:48 16° NE 19:04:58 52° NNW 19:11:15 10° W
Meteor 1-31 Rocket 4.0 19:06:45 22° NNE 19:06:45 22° NNE 19:08:21 10° N
Cosmos 1513 Rocket 4.5 19:01:27 10° N 19:07:45 86° E 19:14:08 10° S
BREEZE-M DEB (TANK) 4.1 19:04:35 10° WNW 19:08:21 72° SSW 19:16:43 18° ESE
Cosmos 2034 Rocket 4.2 19:02:48 10° N 19:08:40 43° ENE 19:13:44 14° SE
Aureole 3 Rocket 3.5 19:05:05 10° NNW 19:08:58 50° W 19:12:07 10° S
Cosmos 1072 Rocket 4.4 19:03:52 10° N 19:10:08 70° E 19:16:16 10° SSE
Cosmos 1544 Rocket 4.3 19:11:15 10° N 19:14:21 32° NE 19:14:21 32° NE
SL-16 R/B 2.6 19:10:19 10° NNW 19:15:44 43° NE 19:17:18 35° E
Cosmos 2227 Rocket 2.3 19:10:23 10° S 19:15:47 50° ESE 19:18:50 25° NE
Cosmos 1570 Rocket 4.0 19:13:16 10° SSW 19:18:34 85° WNW 19:23:51 10° NNE
Cosmos 1455 Rocket 3.5 19:16:22 10° NNW 19:20:37 60° W 19:24:50 10° S
ARIANE 6 FM1 Upper Stage 3.6 19:17:30 10° NNW 19:20:45 30° NNE 19:20:45 30° NNE
Cosmos 1975 Rocket 2.9 19:17:26 10° S 19:21:46 73° E 19:26:05 10° NNE
CZ-4 R/B 3.1 19:33:01 19° N 19:33:01 19° N 19:34:13 10° N
CZ-4C R/B 3.2 19:26:47 10° W 19:30:58 35° NNW 19:35:03 15° NNE
COSMO-SKYMED 1 4.1 19:28:15 10° N 19:31:59 34° WNW 19:35:41 10° SW
DNEPR-1 R/B 3.9 19:27:09 10° NW 19:32:01 84° NE 19:34:11 39° SE
Cosmos 2228 3.0 19:29:22 10° NNW 19:33:33 77° W 19:37:09 14° S
Cosmos 1464 Rocket 4.0 19:30:50 10° N 19:37:14 83° W 19:43:32 10° S
Cosmos 2208 Rocket 4.0 19:33:10 10° SSW 19:38:24 81° WNW 19:43:21 12° NNE
CZ-4B R/B 3.8 19:40:18 37° NE 19:40:18 37° NE 19:44:16 10° N
SPOT 5 2.8 19:39:23 54° SE 19:40:25 72° ENE 19:45:29 10° N
Cosmos 773 Rocket 4.3 19:38:41 10° SSW 19:43:55 69° WNW 19:49:02 11° NNE
CZ-4B DEB 4.1 19:43:20 56° ESE 19:44:04 62° ENE 19:49:28 10° N
CSL-04 Debris 4.0 19:49:11 43° SSE 19:51:02 84° ENE 19:56:30 10° NNW
Tiangong 0.7 19:50:32 10° SW 19:51:08 13° SW 19:51:08 13° SW
CSL-04 Rocket 3.5 19:53:07 40° S 19:55:07 85° WSW 20:00:26 10° NNW
Resurs 01 Rocket 3.7 19:55:38 10° SSW 19:59:20 26° W 20:03:03 10° NW
Cosmos 2297 Rocket 3.4 19:55:26 10° WSW 20:00:43 40° NW 20:06:03 10° NNE
Cosmos 1943 4.1 19:59:26 10° NNW 20:03:26 35° NNE 20:03:26 35° NNE
Cosmos 1782 4.4 20:03:32 10° NNW 20:05:42 28° NW 20:05:42 28° NW
BREEZE-M DEB (TANK) 4.4 19:52:47 10° SW 20:07:36 62° SSE 20:07:59 61° SE
Feng Yun 1-1 Rocket 4.2 20:12:51 79° S 20:13:14 88° WSW 20:19:11 10° NNW
Lacrosse 5 rocket 3.8 20:17:27 10° NW 20:18:22 14° NW 20:18:22 14° NW
Terra 3.8 20:30:15 20° N 20:30:15 20° N 20:31:45 10° NNW
PAYLOAD B 4.4 20:28:03 69° WNW 20:28:03 69° WNW 20:33:18 10° NNW
Cosmos 2263 Rocket 2.9 20:24:37 10° SSW 20:28:28 45° SW 20:28:28 45° SW
ATLAS 2AS CENTAUR R/B 4.2 20:33:18 10° NW 20:38:38 23° N 20:38:56 23° NNE
Cosmos 2344 3.4 20:34:40 10° SW 20:42:26 81° NW 20:43:00 75° N
USA 267 4.0 20:47:08 42° N 20:47:18 42° N 20:53:21 10° WNW
BREEZE-M DEB (TANK) 4.3 20:53:13 10° WSW 21:19:26 14° ENE 21:24:05 10° ENE
SL-16 R/B 3.5 20:54:37 10° NW 20:59:12 35° W 20:59:12 35° W
Cosmos 2227 Rocket 3.7 20:54:58 10° WSW 21:00:03 33° NW 21:00:43 32° NW
CZ-4C R/B 4.4 21:17:07 10° NW 21:20:01 19° NNW 21:20:01 19° NNW
